Wind_Speed
19 19 18 17 17 16 16 16 15 15 13 12 11 10 9 8 8 8 8 8 8 9 7 6 4 0 3 5 8 16 29 36 39 52 44 30 35 34 32 25 21 23 16 9 8 6 11 17 16 18 19 14 7 5 6 6 5 5 4 5 4 2 2 1 0 2 1 2 4 5 4 4 4 6 3 1 4 5 3 3 4 4 1 4 8 9 14 19
20 20 18 17 16 16 16 16 16 15 14 13 12 11 10 9 8 7 8 9 10 11 8 7 5 5 7 6 5 7 15 25 35 45 39 35 38 35 32 26 21 22 19 17 15 12 11 8 10 18 13 5 5 7 5 5 6 5 4 5 2 2 1 3 3 2 2 1 3 3 3 3 2 5 3 3 6 7 6 5 4 5 6 8 12 12 15 19
20 19 18 16 16 16 16 16 16 15 15 14 13 12 11 9 7 8 9 12 13 13 10 9 8 7 9 8 8 5 4 16 28 31 37 40 38 35 33 26 20 21 21 21 20 20 17 7 11 16 8 5 5 4 5 5 4 4 4 6 1 5 3 4 4 4 4 3 2 2 2 2 1 3 2 3 5 7 6 5 4 6 9 9 11 14 15 18
18 18 17 16 16 16 15 16 15 15 15 14 14 14 12 9 8 9 10 13 14 16 16 13 9 7 8 9 7 4 2 10 16 22 36 39 36 34 31 26 20 18 19 20 20 20 20 18 20 14 7 6 5 3 7 5 2 4 3 5 4 5 3 3 5 4 4 4 3 1 1 2 2 1 2 2 3 5 4 3 3 6 9 8 9 14 15 19
16 17 16 16 15 15 15 15 14 15 14 14 15 15 14 11 8 8 9 11 13 17 23 26 22 14 8 1 5 6 2 7 10 27 36 34 35 31 28 26 21 17 19 22 20 20 21 18 15 9 7 5 6 5 5 6 3 5 3 4 5 4 4 3 4 2 3 2 3 1 2 2 2 1 2 4 3 3 3 2 4 5 6 6 7 11 15 19
16 16 15 15 14 14 14 14 14 14 14 14 15 16 16 14 11 9 8 10 13 16 20 25 28 31 30 23 19 15 9 5 13 30 33 31 32 28 26 26 22 19 22 25 23 24 21 14 13 8 5 6 8 7 3 6 4 5 2 1 1 3 2 0 1 1 1 4 4 1 0 1 2 3 1 3 4 5 2 3 4 3 3 5 8 12 14 16
15 15 15 15 15 15 14 14 13 13 13 13 14 17 19 19 18 16 12 10 10 10 10 11 15 20 22 25 36 33 15 3 18 29 30 28 28 27 25 25 23 22 24 27 22 16 13 14 14 6 5 8 6 7 5 6 8 7 4 1 2 1 2 2 2 3 4 3 2 2 2 2 1 2 1 2 6 5 3 3 2 3 6 10 11 12 13 13
15 16 16 17 16 16 15 14 13 12 12 12 14 16 19 21 22 23 20 17 14 13 9 6 5 5 6 9 19 21 9 8 23 28 27 25 26 27 25 26 25 25 29 29 18 7 6 11 9 2 6 7 3 4 4 7 9 8 4 0 2 2 4 4 4 5 5 2 3 3 4 5 3 1 2 5 7 4 4 5 7 7 9 12 10 11 13 15
16 18 18 18 18 17 15 14 12 12 12 12 14 15 17 18 19 21 22 21 21 22 21 17 11 5 4 3 6 11 8 15 23 26 26 22 24 27 27 30 29 28 30 29 23 15 7 5 4 4 7 3 3 3 3 5 5 3 3 1 3 4 6 5 6 8 6 3 4 7 7 6 3 1 2 5 5 5 4 6 8 8 9 8 7 10 12 13
17 17 19 19 18 17 15 12 11 10 11 11 12 12 13 14 15 16 17 19 19 19 21 24 28 26 23 13 10 10 10 19 23 24 23 20 21 25 29 30 29 30 27 26 28 21 9 5 6 8 9 4 5 5 5 5 3 2 4 4 5 3 5 6 6 9 6 1 4 7 7 6 5 3 2 5 5 5 5 6 7 6 7 7 6 10 12 12
16 17 18 18 18 16 14 12 9 8 8 8 8 8 10 11 13 13 13 15 16 18 15 12 20 33 43 33 15 7 12 20 23 24 21 18 20 22 26 26 26 28 26 25 25 18 10 5 6 6 5 3 4 7 6 3 3 3 3 4 6 5 6 7 7 9 6 1 4 3 3 6 5 4 2 7 6 4 4 5 7 6 6 6 6 9 11 12
15 16 17 18 17 15 14 12 8 7 6 7 7 7 10 13 14 14 15 15 14 15 17 16 11 15 33 31 11 5 15 22 23 23 21 17 17 19 20 22 24 27 26 23 20 19 17 10 10 8 2 4 3 4 3 2 4 2 2 3 6 6 7 9 6 7 4 1 4 1 2 6 4 2 4 7 5 3 5 5 6 5 5 6 5 7 9 11
13 15 16 18 16 14 13 12 10 9 7 7 8 8 9 13 16 18 17 15 13 12 17 23 17 16 23 13 7 14 17 22 24 20 20 17 14 14 17 19 21 24 26 24 19 20 21 20 24 14 3 6 3 0 3 4 3 0 3 4 3 6 6 7 5 9 5 2 6 2 2 6 6 5 6 6 4 2 5 5 5 5 5 5 5 5 7 11
12 13 15 18 16 13 12 13 14 12 11 9 8 7 8 12 15 17 18 18 16 14 14 16 13 20 22 4 4 20 19 21 26 23 21 19 13 10 13 16 18 19 21 22 21 20 18 19 25 13 3 6 2 2 3 5 4 0 3 3 3 4 4 7 5 10 8 1 7 5 3 4 7 7 6 6 3 1 4 6 5 5 5 5 5 5 6 9
10 10 14 18 15 13 12 17 20 19 19 16 13 10 7 9 12 12 15 19 20 16 14 17 12 11 12 4 5 18 22 24 28 28 24 19 16 10 8 10 13 16 17 16 15 17 17 16 17 8 3 4 4 5 4 4 4 3 3 3 4 3 4 7 4 8 8 5 7 7 2 4 6 6 6 6 4 1 3 6 5 6 6 5 6 5 5 8
8 10 14 17 15 12 11 17 22 24 26 26 27 22 11 5 5 6 8 11 17 17 15 18 14 10 8 1 7 14 19 23 25 27 22 15 17 15 9 5 7 11 15 17 12 10 16 15 10 4 3 6 5 4 3 4 5 4 4 1 3 4 4 6 3 5 6 5 7 6 2 2 5 6 8 6 4 2 3 6 6 6 6 5 5 5 5 7
8 10 14 16 14 12 10 14 18 21 22 24 27 28 26 17 4 3 5 4 7 13 18 18 10 10 9 5 7 9 13 18 21 26 24 14 14 18 14 6 6 7 8 15 17 11 13 9 4 3 4 5 3 3 5 5 5 4 4 2 2 2 2 4 4 6 8 4 5 6 1 3 6 7 8 6 4 2 3 6 6 6 6 5 5 5 5 5
9 11 14 15 13 10 8 8 9 9 10 11 12 15 23 27 22 16 12 6 3 7 14 21 13 8 6 8 6 10 16 17 19 25 26 15 11 17 18 10 7 7 4 8 14 11 8 5 3 2 3 6 7 7 5 2 2 2 3 2 2 3 2 3 4 5 10 7 5 7 3 4 8 7 7 7 4 2 5 5 5 6 6 5 5 5 5 5
10 11 12 13 11 9 6 3 1 2 6 9 9 7 6 13 24 33 34 26 12 5 5 11 10 5 1 6 8 15 15 12 16 25 28 20 10 11 16 14 7 7 6 4 7 7 4 4 5 3 5 8 7 4 2 1 2 3 2 1 1 3 3 4 4 3 7 6 5 6 4 6 8 8 7 7 5 2 5 5 4 5 5 5 5 5 6 5
11 11 11 12 10 8 6 5 3 4 7 8 8 6 3 3 9 15 23 23 11 5 6 1 2 3 1 4 11 18 11 5 12 26 33 24 11 9 14 13 7 8 6 1 3 4 2 7 8 5 5 6 4 2 2 1 1 3 2 2 3 2 4 4 3 4 4 3 3 4 4 6 6 7 7 7 6 4 5 6 6 6 5 5 6 6 6 6
11 11 10 10 10 8 7 8 8 8 9 5 2 3 2 2 6 2 3 9 6 6 8 2 1 3 2 3 11 16 6 3 12 27 35 23 9 7 9 9 8 7 5 1 2 4 4 9 6 2 3 4 3 2 2 2 2 3 2 2 2 1 4 3 2 5 5 2 2 5 5 5 6 6 6 6 5 4 5 5 6 7 6 6 6 7 7 6
11 11 10 9 9 9 8 8 10 10 10 11 14 13 6 6 11 10 4 5 4 5 4 2 4 4 3 2 12 14 4 5 13 23 32 23 10 6 3 7 9 5 6 3 2 5 8 8 5 3 1 1 2 2 2 4 3 1 1 1 0 3 4 4 2 5 5 2 3 7 5 5 6 6 6 5 4 5 5 4 6 7 7 7 6 6 7 7
11 12 11 9 8 9 9 9 8 6 10 15 18 15 10 11 13 10 4 6 2 4 3 4 5 5 6 5 13 13 5 6 6 14 26 19 7 5 3 6 7 4 7 7 5 5 6 4 4 1 3 4 3 6 4 3 2 1 1 2 1 3 3 2 3 6 6 1 2 4 2 4 6 5 6 4 3 5 5 5 6 5 6 8 7 6 6 7
11 11 11 9 7 8 9 9 6 6 12 17 19 15 12 11 9 6 3 4 2 2 2 2 3 3 4 4 13 9 3 4 0 9 21 13 2 2 4 3 4 5 5 6 9 10 5 2 2 3 3 4 3 5 6 4 3 2 1 4 1 4 2 4 4 7 5 0 2 3 3 4 5 4 6 5 4 5 5 6 6 4 4 6 7 7 6 6
10 10 11 10 6 4 5 6 7 10 12 13 14 12 10 7 4 3 3 4 4 3 2 1 2 5 3 5 14 5 2 3 1 6 14 11 4 1 3 2 3 4 2 1 9 8 3 2 1 4 5 4 5 3 4 3 3 4 1 4 3 3 5 6 5 5 4 2 4 5 4 4 4 4 5 5 6 7 6 7 7 7 6 5 6 7 6 6
10 9 9 9 7 3 1 3 6 7 7 8 8 7 6 4 2 1 3 5 4 3 5 3 1 7 7 8 12 3 3 4 2 6 12 12 5 3 3 3 2 3 3 2 5 3 2 3 2 4 4 4 5 2 0 2 3 3 1 3 1 3 4 3 3 1 3 2 3 4 4 3 4 4 5 5 5 7 6 7 7 7 7 6 6 6 7 7
10 9 9 9 8 6 2 2 3 3 3 4 5 5 4 3 2 2 3 5 4 2 5 4 2 7 7 9 11 3 3 7 4 7 13 14 8 2 4 4 2 3 1 2 3 2 2 5 6 6 5 5 6 3 2 2 3 2 1 2 2 2 3 1 2 2 1 1 3 5 4 2 3 4 6 5 5 6 7 8 8 7 7 7 7 7 7 6
12 10 9 9 9 8 6 3 2 3 4 5 5 4 3 2 0 2 5 4 3 1 1 3 3 6 7 8 11 7 1 6 2 6 12 14 10 2 4 3 3 1 1 4 3 1 2 5 5 5 5 5 3 3 3 2 1 3 1 1 2 1 3 2 3 2 1 2 3 6 4 2 3 5 5 4 4 6 7 8 8 8 8 8 7 8 8 7
13 11 10 9 8 9 7 4 4 6 7 7 5 3 2 0 1 3 6 3 2 1 1 3 3 6 8 8 8 6 3 4 3 7 12 11 11 7 4 2 5 3 2 5 5 2 1 0 2 1 4 4 3 6 3 4 2 2 3 3 3 4 3 3 3 1 2 4 2 5 3 2 4 5 4 4 4 4 6 6 7 7 7 7 7 8 8 8
14 12 11 9 7 6 6 6 7 7 6 5 4 2 1 2 4 5 4 1 1 2 1 3 3 4 7 7 6 6 5 4 2 6 7 5 10 8 4 1 4 5 4 6 5 0 1 1 2 2 2 3 5 5 3 6 2 1 5 4 4 3 3 3 2 2 4 3 4 5 1 2 1 4 3 1 1 3 5 5 7 7 8 8 7 8 7 7
15 13 12 11 9 6 3 5 6 6 4 3 2 2 2 2 5 7 2 1 0 2 2 4 3 4 7 5 4 5 4 4 5 6 6 4 7 8 5 4 3 4 5 5 5 4 3 3 1 1 1 2 3 3 1 3 2 3 3 3 2 2 3 3 5 5 4 3 5 4 1 2 1 4 4 3 4 4 4 5 6 7 8 8 7 7 7 7
15 15 13 12 12 9 5 5 4 5 3 2 1 3 3 3 4 3 1 3 2 2 2 1 2 3 5 3 3 5 4 4 5 5 3 4 6 7 6 5 3 4 5 4 5 4 2 1 4 4 1 3 4 3 3 2 3 4 3 4 3 2 4 2 3 3 0 4 2 2 2 0 4 6 4 5 6 5 6 6 6 6 8 8 8 8 7 6
11 15 15 14 13 11 8 5 4 4 2 2 3 5 6 5 2 1 3 2 1 2 1 0 3 3 3 3 5 5 3 2 5 4 2 2 5 4 3 4 3 2 2 2 4 5 3 3 5 5 2 4 5 4 3 4 6 6 4 4 3 3 4 2 3 2 2 5 2 2 2 2 3 4 4 5 6 6 6 6 6 7 7 8 8 7 7 6
6 11 15 16 15 12 8 4 3 3 3 3 4 5 7 4 1 2 2 3 1 3 2 0 4 4 4 4 3 4 2 2 4 5 4 4 5 4 4 6 7 3 1 2 3 3 3 4 5 4 2 4 5 3 1 1 3 3 1 3 3 3 2 2 3 1 3 5 5 3 1 1 2 2 5 5 6 6 5 5 6 6 6 7 7 7 7 7
4 6 13 17 17 14 9 3 1 3 4 3 6 6 5 2 3 2 2 4 1 2 1 1 3 5 4 4 3 2 1 1 3 5 5 4 3 3 3 4 6 4 2 3 1 1 2 3 4 3 3 3 4 1 1 2 1 1 2 3 2 2 3 1 2 3 1 3 4 3 2 4 3 3 3 3 5 5 4 4 4 5 6 5 5 7 7 7
4 3 8 17 18 15 10 3 0 2 4 5 7 5 2 3 3 3 2 1 1 1 0 2 4 5 3 4 4 4 1 1 3 4 4 3 1 1 2 2 4 4 3 2 1 2 2 3 4 4 3 3 2 2 1 2 1 1 2 2 1 3 5 4 1 0 4 2 4 2 3 5 3 2 4 5 3 4 4 5 5 5 6 6 7 7 7 7
4 3 4 14 19 16 11 5 1 3 3 6 7 2 2 2 2 2 1 1 0 2 4 1 2 3 1 2 4 5 3 2 3 4 3 2 1 1 2 1 1 2 2 1 1 0 1 3 4 2 1 1 0 0 3 2 0 2 2 0 1 2 4 3 1 3 5 1 4 3 3 5 3 1 4 5 3 6 6 5 6 6 6 7 7 7 8 8
3 1 1 11 19 16 12 7 1 3 4 7 5 2 2 1 1 2 1 1 0 2 5 3 0 1 2 1 2 5 4 3 3 4 2 1 1 1 1 1 1 1 3 2 1 0 1 3 5 1 1 4 3 2 3 4 2 3 3 2 1 2 2 2 2 2 3 2 5 5 4 4 2 3 4 4 5 7 7 6 6 7 6 6 7 8 9 9
2 1 0 10 20 16 11 6 1 3 6 6 3 2 1 1 1 1 1 1 1 2 3 2 1 2 2 2 1 3 3 3 3 3 1 2 2 1 1 1 1 1 3 3 2 1 1 1 4 2 1 4 4 3 1 3 5 4 3 2 2 3 2 1 1 1 1 1 3 5 5 3 5 5 4 5 7 6 6 6 6 7 6 6 6 7 8 8
1 1 1 11 21 14 7 6 5 6 6 3 3 2 1 0 1 1 2 2 0 1 1 3 2 2 2 2 1 1 2 2 1 2 1 1 1 1 2 1 1 2 3 3 3 0 2 2 3 4 3 3 2 1 1 2 2 3 3 3 3 2 1 1 0 1 3 2 1 2 5 5 5 4 6 7 7 5 6 6 6 7 6 7 7 7 7 7
2 2 2 12 21 10 4 8 7 5 4 3 2 1 1 1 1 2 3 2 1 0 1 3 3 3 3 1 0 1 1 2 1 1 0 0 1 0 2 1 1 1 2 3 4 1 1 2 2 4 4 2 1 1 1 2 2 1 1 2 1 1 2 2 2 3 1 2 3 2 4 8 6 3 5 6 5 5 5 5 6 7 7 8 8 7 7 7
4 2 3 14 19 7 5 8 4 2 4 2 1 0 1 2 2 1 2 2 1 0 1 3 3 2 3 2 1 1 1 1 1 1 0 1 1 2 1 2 1 0 1 1 2 1 1 3 0 4 3 2 3 2 1 1 2 3 1 2 3 2 3 4 2 3 0 0 1 3 2 8 6 3 4 5 4 5 4 5 6 7 8 8 8 8 8 7
2 1 3 15 17 4 6 6 2 4 2 1 1 1 1 2 2 1 1 2 1 0 2 2 2 2 1 1 2 2 1 1 2 0 1 2 2 2 1 2 1 0 2 1 1 1 2 3 2 4 3 3 4 3 2 2 2 2 1 1 3 2 2 4 4 2 1 2 2 2 2 7 6 2 3 4 4 5 4 5 6 7 8 8 8 8 8 7
1 2 2 13 14 2 4 3 1 2 1 2 2 2 1 1 2 1 0 1 1 1 2 1 1 2 1 1 3 2 0 0 2 1 0 2 2 1 3 4 1 1 2 0 0 1 1 1 2 3 5 5 6 5 5 4 1 2 2 1 2 3 5 4 2 2 1 4 6 4 4 7 5 2 2 3 4 6 7 5 6 7 8 8 8 8 7 7
1 1 3 9 14 9 5 3 5 5 2 2 4 1 1 2 1 0 1 1 1 1 2 1 1 2 3 2 3 2 2 2 1 1 1 1 3 2 4 5 3 1 1 0 1 1 1 1 2 3 2 2 4 4 4 3 2 1 1 2 2 4 6 3 1 2 2 4 5 5 6 6 7 6 4 4 5 7 9 7 5 7 8 8 7 7 7 7
2 1 3 6 11 10 4 1 5 6 4 4 3 1 1 2 1 1 2 1 1 1 2 1 1 3 3 2 2 2 2 2 1 1 1 2 3 1 2 4 3 1 1 2 4 2 2 0 3 4 4 4 5 6 2 2 2 4 3 4 4 4 5 4 3 3 4 3 3 8 9 8 14 14 7 6 7 8 9 8 7 7 7 7 7 7 8 7
2 1 1 2 4 5 4 4 4 4 4 4 3 2 3 2 1 2 1 1 1 1 2 2 1 2 2 2 2 1 1 2 2 0 2 2 2 2 2 2 2 2 1 2 3 3 3 1 3 4 7 8 7 9 5 2 5 9 7 5 7 6 5 6 6 6 4 3 4 8 5 6 14 14 9 10 11 9 9 9 8 8 8 8 8 8 9 9
1 1 1 0 1 1 3 2 3 5 4 3 3 2 3 3 1 1 1 1 2 1 1 1 2 3 5 4 3 2 0 2 2 1 2 2 1 2 2 1 1 4 3 2 3 2 4 2 3 3 7 10 10 12 10 5 7 10 9 9 8 8 9 11 12 8 7 7 9 5 3 7 14 15 14 14 12 10 11 10 9 9 9 9 8 8 9 9
2 2 1 2 1 2 1 1 4 6 6 4 3 2 4 5 5 3 1 2 2 2 1 1 5 4 5 4 3 3 2 1 1 3 2 2 1 0 1 0 0 3 3 2 2 1 3 2 3 2 6 11 11 13 10 6 7 9 11 12 11 10 12 13 13 10 10 14 16 12 11 15 18 17 18 17 12 9 10 10 9 10 10 9 8 9 10 9
1 3 1 3 3 2 1 2 3 5 4 3 2 2 3 6 6 3 2 4 2 1 2 3 4 2 4 4 4 2 5 4 0 3 4 3 1 2 2 2 2 2 3 2 1 2 0 2 1 2 4 9 6 4 4 5 7 11 13 11 10 10 10 12 12 9 9 14 17 14 14 17 19 16 14 14 11 7 8 10 10 10 9 8 8 9 9 10
2 3 4 5 3 2 1 2 3 4 2 0 2 3 3 6 7 5 3 3 4 4 6 6 4 4 4 2 3 5 6 6 2 2 6 5 1 2 2 1 4 4 1 1 0 1 0 2 2 4 4 7 2 3 5 8 8 11 15 13 11 10 8 9 9 9 11 12 10 6 7 13 14 9 6 9 9 7 9 11 9 9 9 7 8 9 9 10
4 3 3 5 3 2 1 1 2 2 2 2 2 3 3 4 6 6 3 1 1 3 6 7 7 5 3 3 6 7 6 7 5 2 4 4 3 3 2 3 5 5 3 3 1 0 2 1 1 3 2 6 4 5 9 10 6 5 8 7 10 10 7 6 6 9 12 10 5 5 9 10 7 5 5 8 9 8 10 9 7 8 9 7 8 9 10 10
Wind_Direction
78 79 75 69 62 57 57 60 63 61 61 57 51 48 40 39 37 38 33 20 17 4 351 335 325 44 12 7 26 36 36 35 37 38 37 10 360 6 6 9 13 20 30 46 70 72 49 40 30 44 54 44 17 340 10 22 20 43 72 65 82 57 42 127 219 187 144 313 308 328 352 30 353 326 335 90 25 8 333 337 326 328 5 353 342 336 341 352
78 77 72 66 60 57 59 60 60 56 56 55 53 51 43 43 37 42 42 32 28 8 347 319 304 269 297 308 318 10 28 19 30 33 20 6 10 13 13 18 25 30 43 57 59 67 69 16 17 52 51 29 6 356 10 11 26 62 100 72 103 171 132 176 193 201 161 244 278 299 321 27 15 302 347 27 331 349 11 340 334 331 323 342 347 347 347 354
74 72 69 65 62 61 61 59 56 52 51 52 53 53 48 45 44 56 54 45 37 20 5 329 307 283 284 266 279 305 325 6 31 22 1 6 12 12 17 22 30 40 50 57 60 72 83 77 68 69 59 47 19 352 31 14 22 62 98 79 150 195 167 201 199 192 200 194 205 295 315 22 336 283 11 14 319 349 4 330 339 333 323 329 333 342 346 355
67 66 67 66 65 62 60 56 54 52 51 52 54 55 53 48 54 62 57 52 46 44 41 20 352 298 272 251 261 258 276 20 30 357 354 6 9 12 20 24 32 48 60 67 71 76 84 79 72 71 75 56 346 3 39 359 32 52 77 111 165 178 127 204 206 196 213 179 155 219 349 356 294 292 70 67 6 343 316 290 310 300 307 312 316 336 352 2
63 65 67 66 64 60 58 55 53 53 52 55 55 56 56 51 52 56 54 53 55 60 61 58 57 55 54 6 239 237 316 45 359 344 355 3 8 14 21 26 36 52 67 75 72 68 69 67 68 59 63 54 348 26 19 330 63 70 44 122 155 157 121 204 220 216 217 123 81 69 36 336 292 4 117 106 93 283 281 284 280 266 284 303 315 342 1 7
66 67 67 64 61 58 56 54 52 52 54 57 58 59 60 59 56 53 50 55 69 77 73 71 70 70 70 69 79 79 77 82 327 341 356 2 9 15 24 30 36 52 68 70 60 57 54 48 62 51 50 63 30 45 5 326 51 91 60 29 154 175 130 190 303 8 77 60 38 34 303 303 3 335 206 137 193 225 255 279 276 276 306 338 353 1 6 4
69 67 66 63 60 58 55 52 50 51 55 58 63 66 68 69 68 67 67 71 83 83 70 70 68 68 68 66 69 69 79 58 335 346 358 4 14 16 29 36 35 49 59 53 44 52 50 45 64 66 72 71 42 52 39 17 44 79 100 7 13 111 59 3 347 26 40 48 331 272 316 315 327 327 353 250 248 249 302 332 360 354 8 16 14 8 3 359
69 68 66 62 57 53 48 46 44 48 55 62 70 74 74 73 72 72 74 76 72 60 42 30 22 18 35 56 66 63 67 351 343 355 3 9 20 20 33 39 39 49 51 44 35 46 56 52 67 110 71 57 48 59 31 45 44 60 101 284 30 29 356 351 5 16 2 343 316 344 341 302 257 270 351 280 274 297 325 13 17 10 18 19 12 0 359 358
73 69 62 54 49 44 41 40 43 52 58 68 76 80 77 71 69 69 69 70 67 64 57 51 45 43 73 83 79 66 20 347 351 3 11 15 22 28 39 41 43 53 52 46 43 53 62 54 57 103 101 87 74 40 326 71 54 46 93 61 54 7 345 10 19 10 345 330 5 0 340 319 305 321 303 279 296 330 354 22 4 13 19 4 358 353 358 355
75 63 52 46 42 38 36 37 45 56 63 74 79 77 70 61 62 64 65 62 59 58 55 56 60 67 75 64 61 69 353 351 9 12 19 24 22 33 42 41 46 55 56 49 46 54 66 82 89 105 110 99 72 29 358 80 108 98 97 89 69 17 359 25 18 6 350 351 23 359 334 323 331 358 311 293 319 343 10 9 349 19 12 344 344 343 350 346
65 51 45 42 41 37 30 30 39 52 64 71 69 61 54 53 59 59 58 52 45 43 38 44 56 61 65 62 65 67 355 2 16 18 27 30 25 34 41 40 44 53 59 54 48 55 67 94 120 111 91 76 66 44 33 78 123 87 98 84 24 4 26 22 14 5 352 90 29 6 334 331 347 24 308 293 323 14 37 353 340 12 354 334 331 331 339 334
52 44 44 41 39 36 27 25 30 42 52 54 50 51 58 61 58 53 48 43 39 40 41 48 50 57 61 59 63 33 8 12 15 22 34 34 35 41 44 45 46 51 60 61 53 59 69 81 92 85 77 122 91 48 70 75 88 72 76 91 350 358 34 13 1 349 348 85 2 28 35 345 337 341 302 309 332 37 41 348 333 350 332 325 322 325 329 324
43 44 42 37 37 38 31 33 43 48 50 51 50 50 62 66 60 56 50 43 41 44 57 61 57 66 67 62 36 26 17 17 18 27 39 39 48 52 50 53 53 54 60 66 65 65 72 76 82 90 81 99 106 43 112 45 62 149 32 87 4 7 16 1 356 342 360 83 348 35 75 330 291 277 295 326 348 21 360 325 317 330 321 322 321 323 318 318
42 46 37 31 39 47 46 58 64 61 57 50 41 38 57 69 65 63 56 48 44 43 60 61 51 63 69 97 28 24 15 21 24 25 27 30 46 62 63 62 60 58 59 67 69 67 72 72 77 87 62 76 99 29 54 17 34 29 8 44 30 32 338 341 5 2 15 9 351 47 104 319 296 292 304 330 356 68 316 302 309 320 316 321 320 322 311 313
45 41 27 27 43 56 65 80 79 74 70 60 51 42 49 75 73 70 57 50 46 44 60 61 54 68 70 92 32 14 12 23 22 16 12 16 29 31 42 59 58 55 56 61 68 64 60 65 68 67 6 33 54 49 32 3 26 30 27 1 1 29 321 325 354 29 22 305 349 52 90 307 290 291 311 338 12 90 292 298 308 313 314 320 317 320 308 308
39 28 21 26 47 64 79 91 87 81 74 64 58 51 46 70 76 59 39 40 44 43 56 53 48 75 88 34 354 2 11 13 7 10 11 14 21 12 10 48 51 54 60 51 52 45 36 51 69 64 27 23 39 65 49 26 12 12 52 41 326 3 343 331 340 30 17 310 347 37 107 282 286 298 321 347 18 43 292 295 304 307 308 312 311 314 306 307
30 22 21 27 48 69 90 99 94 84 73 65 60 55 54 52 28 303 328 353 38 40 48 37 34 82 71 357 352 353 349 350 354 6 12 15 20 18 23 44 26 34 66 42 32 24 14 31 72 68 54 38 32 73 61 31 351 348 30 41 308 330 320 333 326 345 8 21 356 5 110 239 282 298 320 341 3 357 275 291 303 305 305 306 309 306 303 310
27 22 25 30 47 70 93 110 105 84 59 45 44 48 53 54 60 61 46 63 50 14 36 22 22 87 37 356 355 320 316 332 353 6 11 14 15 21 29 35 10 5 33 24 22 21 5 17 61 83 49 30 28 45 65 50 313 294 340 9 328 311 286 310 302 335 4 22 10 6 17 296 302 310 323 333 356 328 268 285 294 298 304 304 310 303 300 310
26 24 28 31 46 70 87 112 157 313 320 326 332 341 16 44 58 57 50 59 61 26 43 2 12 108 318 326 323 322 318 329 0 9 11 11 360 12 26 29 27 34 44 12 8 19 14 24 41 53 20 7 12 35 90 213 208 209 224 154 262 308 295 279 272 315 355 1 5 9 339 295 306 319 325 325 347 328 284 306 304 299 306 300 306 301 300 307
26 25 27 31 43 62 67 62 30 333 322 313 304 326 350 23 45 38 35 50 63 65 92 331 357 100 342 310 325 342 344 337 15 13 9 4 349 4 14 11 26 49 47 5 341 353 40 51 46 40 355 321 307 265 224 280 204 173 151 164 206 267 294 286 278 303 342 359 340 347 313 286 291 301 307 316 334 330 311 319 309 302 307 303 306 306 308 301
26 23 23 29 39 47 48 48 37 26 14 8 43 60 107 116 79 115 2 44 54 59 83 129 95 71 343 310 339 355 2 343 13 11 8 4 357 17 3 360 35 37 13 311 299 320 40 55 37 347 288 277 300 284 182 110 119 149 158 211 228 286 299 289 260 306 343 28 320 356 352 310 303 300 301 323 336 318 303 301 301 305 304 302 303 305 312 302
23 20 20 26 36 39 41 43 42 46 52 75 93 88 104 122 112 135 145 85 44 30 85 88 60 36 331 357 358 358 7 7 4 2 5 8 19 38 5 25 55 32 347 9 350 357 48 48 350 294 251 136 26 7 106 112 120 142 253 209 336 341 315 302 288 323 350 50 335 358 8 313 307 300 292 309 313 291 285 270 277 294 298 303 306 308 316 314
22 21 22 24 34 36 38 43 42 55 76 91 94 93 105 111 124 140 106 98 76 360 24 33 51 18 356 27 2 359 38 37 359 345 358 6 24 52 68 49 56 37 6 28 54 56 61 23 340 39 123 115 41 6 44 76 83 77 20 73 14 333 355 309 303 335 345 36 322 336 2 306 317 327 304 291 282 289 297 285 272 266 269 282 294 296 294 299
22 21 23 24 30 34 41 44 46 67 83 94 94 100 121 121 130 142 79 86 69 8 26 38 103 54 20 5 354 360 74 47 324 334 356 13 35 34 73 87 68 48 8 30 67 82 89 311 339 66 71 106 90 6 33 45 3 334 68 102 97 323 311 240 282 335 337 303 326 7 35 320 330 357 322 310 330 324 331 341 331 313 280 281 296 293 272 266
25 22 23 24 22 28 48 51 62 83 87 91 95 104 122 128 145 134 85 69 20 332 360 39 111 34 12 351 355 360 137 39 77 340 355 17 21 23 70 109 80 49 285 39 69 83 83 315 7 48 23 70 98 33 33 59 1 320 270 139 130 309 277 264 309 345 14 27 358 35 58 302 314 341 312 325 350 333 341 5 353 334 329 331 321 310 301 287
27 25 24 23 23 18 27 59 72 88 85 81 96 114 118 122 143 97 91 68 25 324 356 12 59 6 353 346 347 355 91 4 327 8 12 15 7 142 76 356 58 60 214 162 77 91 42 2 54 66 42 44 62 61 165 107 43 349 327 113 80 300 260 279 328 22 78 35 333 42 105 253 313 327 301 316 332 320 338 360 348 337 340 338 322 311 312 309
26 27 26 24 25 24 25 131 106 83 80 97 111 119 115 112 90 40 57 48 17 327 354 343 344 0 347 344 350 62 79 321 313 26 18 11 357 130 70 12 38 29 205 128 50 45 7 359 16 32 41 42 38 14 279 94 64 320 353 57 318 278 204 205 53 90 87 299 327 19 88 151 293 282 281 306 333 335 349 351 338 335 330 324 319 314 312 307
25 25 27 27 28 36 53 99 110 83 108 135 127 116 124 129 339 21 72 71 354 352 25 315 330 355 340 353 14 70 90 316 21 2 352 14 12 28 78 73 123 26 296 114 87 329 21 8 3 7 18 34 26 307 285 107 47 275 201 57 293 145 140 116 80 79 5 40 347 338 32 78 276 274 296 339 12 347 338 330 318 317 316 315 318 318 319 317
27 26 28 27 30 42 55 70 92 108 123 134 118 112 148 90 37 51 76 105 318 353 147 325 348 345 344 2 18 44 12 360 73 327 338 22 15 23 88 151 140 126 345 89 120 192 73 22 212 81 27 5 290 278 221 152 284 280 120 81 53 70 68 66 75 98 47 47 315 295 1 59 274 287 317 1 20 326 307 305 294 293 301 307 315 319 319 321
28 28 29 25 30 40 53 67 89 117 126 124 110 88 130 67 64 63 54 147 328 324 249 13 7 337 1 19 1 4 21 8 334 331 350 19 360 20 91 217 106 96 11 46 80 157 298 252 190 117 34 290 274 284 206 177 228 72 88 56 48 40 31 50 31 79 67 359 256 244 339 88 288 292 270 288 329 267 270 292 296 304 316 319 319 318 318 320
31 32 31 32 37 32 47 77 96 130 129 121 119 21 57 45 61 88 93 255 300 320 1 26 358 6 28 45 360 348 15 348 335 8 11 357 0 18 42 10 30 56 20 21 27 353 353 16 329 273 322 318 312 320 261 192 182 109 97 79 87 352 10 33 350 34 70 307 257 226 282 99 185 275 252 254 273 244 225 253 284 306 316 316 314 312 316 318
32 33 33 37 43 43 69 107 125 138 122 123 85 37 80 43 26 98 270 327 346 315 20 7 314 14 18 32 22 343 342 344 358 45 22 2 33 34 35 26 346 6 10 358 359 353 349 351 320 305 336 23 5 353 350 339 5 29 38 58 70 355 10 26 329 5 171 272 241 195 307 350 220 251 257 270 277 255 224 227 251 279 294 304 310 313 317 317
27 30 33 37 41 45 67 106 135 144 150 129 76 48 77 75 37 195 269 326 12 327 30 324 312 354 359 18 14 338 351 358 350 28 36 38 52 36 25 29 15 11 348 342 2 359 335 305 336 353 356 16 37 45 7 335 350 4 16 45 62 66 35 336 293 340 291 283 274 226 285 304 280 270 229 236 263 258 241 238 248 258 271 288 296 301 308 312
7 21 27 33 38 40 50 82 120 143 163 118 79 51 64 76 185 180 272 262 253 345 20 17 330 359 34 43 350 323 26 30 351 17 14 27 44 16 355 5 13 32 106 53 31 22 15 312 334 17 341 355 43 74 97 233 335 340 171 100 85 116 87 290 259 280 288 293 298 294 279 209 279 278 209 229 271 271 259 257 259 259 258 269 290 306 316 319
320 357 17 25 30 29 32 48 104 142 158 102 64 61 82 147 223 172 232 247 234 348 327 356 35 40 15 354 332 344 54 327 1 37 21 28 55 11 354 340 352 13 75 59 5 21 54 274 287 318 300 10 32 338 154 123 3 285 155 83 59 158 123 101 191 186 226 316 299 295 248 213 229 262 263 301 294 272 287 302 308 303 289 301 325 327 326 322
301 302 7 20 20 15 18 29 120 149 148 93 62 61 135 194 202 164 185 202 142 148 165 345 42 58 357 322 337 358 27 298 4 42 26 32 119 348 8 290 329 12 51 82 41 360 12 281 293 326 329 42 42 302 360 37 330 356 50 40 241 168 122 106 202 337 61 30 283 301 292 289 325 303 307 353 328 269 304 322 322 308 310 340 348 328 319 315
313 285 359 15 12 7 8 11 104 154 118 82 79 103 195 200 182 180 188 69 150 117 99 59 4 53 351 315 325 328 341 330 8 44 30 12 52 18 21 292 315 23 22 99 140 42 351 285 302 360 356 331 75 44 8 360 43 64 57 190 195 96 82 96 83 353 34 15 282 326 302 294 343 331 307 338 302 274 282 291 304 306 320 344 334 314 309 304
314 285 8 9 5 3 2 4 115 150 89 68 80 140 171 166 184 199 198 90 124 73 87 130 155 67 189 167 323 310 338 357 10 41 39 2 41 101 59 356 39 35 334 360 66 37 48 300 307 348 221 309 354 71 349 330 9 75 110 157 105 75 16 26 64 21 11 331 297 313 305 270 230 234 281 273 247 262 277 288 301 298 307 324 313 308 310 307
317 326 358 359 1 2 1 2 123 108 67 74 109 162 153 144 275 251 262 338 147 92 88 159 159 69 159 153 311 298 351 29 28 42 57 26 32 113 112 359 346 3 336 18 84 261 53 59 295 291 260 314 357 65 24 319 340 22 54 5 22 109 143 9 67 132 144 313 301 319 331 286 231 218 210 230 237 243 266 285 284 271 278 293 294 300 303 303
341 29 259 352 359 360 6 25 55 58 58 104 162 173 74 130 266 306 336 360 78 125 111 169 149 99 177 208 260 302 16 46 61 48 57 41 33 59 58 38 310 337 341 27 73 328 24 82 262 297 342 343 353 47 158 210 303 355 28 14 6 34 61 70 29 111 124 139 211 319 315 278 250 208 192 226 246 235 236 255 265 266 273 284 288 291 291 293
58 41 282 351 358 351 26 44 42 50 78 112 121 112 67 125 148 353 350 8 42 249 157 145 137 126 159 172 157 205 35 41 46 43 344 261 107 50 16 86 190 325 349 30 44 32 31 92 233 295 339 338 267 299 233 194 197 181 121 122 123 33 59 79 328 319 90 141 172 162 287 276 264 210 206 228 241 241 238 236 254 271 274 282 289 284 281 285
69 58 294 351 355 350 65 54 33 52 92 98 59 118 30 77 109 25 345 10 41 332 72 95 100 99 128 120 107 168 108 67 38 51 191 240 196 200 8 62 172 320 73 53 346 288 139 91 330 274 276 261 279 315 359 184 161 138 150 156 138 111 102 120 225 266 238 90 140 119 268 271 266 226 228 242 237 245 242 219 243 275 280 281 287 285 285 279
91 212 302 355 352 358 82 58 2 28 47 246 286 328 360 49 106 60 340 357 15 351 39 55 55 62 111 138 105 137 152 163 185 182 220 244 249 230 30 47 205 190 73 100 298 329 71 66 4 295 293 314 320 329 7 35 82 125 225 169 140 137 122 148 175 177 194 214 151 102 265 265 276 273 242 254 263 270 264 228 238 270 282 281 281 285 289 283
130 227 278 358 356 17 107 91 137 66 331 262 37 31 340 40 99 73 31 305 348 109 92 84 48 57 95 93 91 129 291 106 178 296 257 199 255 341 40 32 21 77 65 191 232 324 324 55 40 353 345 344 346 349 344 346 2 205 230 175 141 109 99 118 137 75 296 221 160 144 246 253 268 300 295 300 307 295 279 249 235 257 276 286 287 286 287 286
64 264 265 357 21 59 104 157 145 131 161 117 82 73 21 59 72 90 154 161 345 129 109 90 83 85 97 78 71 75 22 37 161 336 15 219 264 339 24 7 11 82 214 244 79 154 223 196 129 94 48 332 313 312 313 311 280 237 204 187 179 136 132 152 95 77 257 238 158 173 232 260 280 288 296 299 294 286 284 279 265 259 264 272 279 285 289 291
81 45 299 341 25 55 73 111 103 116 155 140 110 139 95 85 322 326 101 87 12 80 70 56 117 93 86 90 74 46 347 343 39 74 226 249 269 296 357 1 32 99 198 71 62 81 109 208 207 178 190 220 247 258 264 37 303 272 254 212 195 176 150 127 106 165 202 190 200 229 239 278 288 284 287 291 279 272 277 284 287 282 276 274 274 281 287 286
101 101 24 331 358 41 47 25 57 98 154 146 124 155 144 124 336 7 59 10 16 61 37 37 127 144 148 152 130 100 296 323 5 109 208 238 270 295 336 31 48 1 344 40 32 76 92 302 247 205 232 248 261 271 284 358 281 265 262 236 205 190 164 157 194 207 154 125 256 253 218 242 272 279 289 294 289 285 283 284 289 293 293 290 287 289 291 290
49 144 128 97 319 46 47 37 84 89 85 87 89 120 134 133 156 180 181 22 21 13 65 15 276 213 184 169 147 142 270 337 330 236 210 246 283 332 358 51 24 345 8 28 349 90 118 261 248 195 257 266 268 274 276 272 263 259 256 249 231 203 190 205 222 202 158 201 249 256 167 235 266 281 286 283 283 288 289 289 291 290 286 286 290 291 289 289
69 110 59 24 101 154 104 53 110 98 80 74 82 123 154 168 189 206 158 77 1 312 150 231 267 230 190 174 120 123 189 187 306 265 202 183 226 204 340 288 330 355 35 72 351 58 140 246 247 196 277 273 262 265 263 249 260 264 250 240 235 222 209 219 234 215 200 235 254 262 270 273 274 274 275 278 281 282 284 288 288 283 280 281 287 288 284 282
127 149 153 57 68 104 44 35 87 94 68 58 107 153 164 171 187 209 166 140 155 264 184 214 242 180 156 163 134 180 217 181 227 276 177 155 273 219 213 216 153 42 30 92 356 338 244 272 254 101 300 282 272 280 260 229 246 264 264 246 228 228 225 228 238 228 220 244 256 262 272 276 271 265 268 276 283 285 279 278 276 273 273 277 278 277 278 279
108 132 138 106 69 360 360 28 73 100 92 31 160 171 189 195 194 186 178 167 156 171 187 192 179 115 95 144 193 244 234 184 168 233 175 166 225 203 201 213 145 131 94 152 128 4 181 277 6 50 339 288 298 23 307 275 259 263 273 260 222 210 218 222 224 212 207 226 245 254 256 258 263 272 274 268 272 278 273 270 270 271 270 267 268 271 274 278
110 99 115 107 85 352 38 48 42 96 186 230 170 165 196 217 201 174 163 187 118 157 185 175 151 115 97 189 227 237 220 190 183 192 166 139 85 90 88 70 104 126 163 159 115 52 142 130 16 48 321 277 295 329 304 301 307 278 266 240 197 194 213 232 239 224 210 203 200 215 229 242 267 302 292 275 276 274 270 265 261 270 273 265 261 266 272 274
Height
852 852 852 852 851 851 850 850 849 849 849 848 848 847 846 846 845 845 844 843 842 841 839 839 837 836 836 835 834 835 833 831 829 821 825 845 848 843 839 834 830 825 822 819 818 819 819 819 820 817 815 821 830 834 834 840 842 841 854 868 879 890 890 892 893 891 892 892 890 891 892 888 885 886 885 884 884 886 886 884 884 883 883 883 882 881 880 878
854 854 854 853 853 853 852 852 851 851 850 849 849 848 848 847 846 845 845 844 842 841 839 838 837 836 835 835 836 834 834 835 827 824 838 850 845 841 838 834 831 827 824 821 820 820 820 824 823 819 822 832 840 838 837 844 848 853 867 874 884 893 892 893 893 891 892 890 890 891 891 889 888 888 885 882 883 884 884 883 883 882 882 882 881 880 879 877
856 856 855 855 854 854 853 853 852 852 851 850 850 849 848 847 846 846 845 844 843 841 839 837 836 836 835 835 835 834 836 832 825 835 848 848 844 843 838 835 833 830 827 825 824 822 822 826 823 823 829 838 846 843 842 849 854 863 869 875 889 892 890 893 891 890 890 889 888 888 889 887 887 888 885 884 884 883 884 884 884 882 881 881 880 879 878 876
858 857 857 856 856 855 855 854 853 853 852 851 851 849 849 847 847 846 845 845 843 842 840 837 835 834 834 834 833 834 834 831 838 853 855 849 848 845 841 839 836 833 831 828 828 826 825 825 822 826 832 843 851 846 850 857 857 866 871 874 887 891 888 889 888 889 890 890 887 886 888 885 885 887 886 886 884 883 885 885 886 885 883 882 880 879 877 875
859 858 858 857 857 856 856 855 854 854 853 852 851 850 849 848 847 847 846 845 845 844 841 839 836 835 834 832 834 833 832 842 858 862 856 853 851 847 845 842 838 837 834 830 830 828 826 825 824 830 839 850 854 850 860 867 862 872 883 882 886 890 886 886 889 889 889 889 887 886 886 885 886 886 886 886 884 884 884 885 886 885 884 883 881 879 877 875
860 859 859 858 858 857 857 856 856 855 854 853 852 851 850 849 848 848 847 847 846 845 843 842 839 837 836 835 835 831 838 861 871 864 859 857 853 851 848 844 842 839 835 832 831 830 831 830 829 839 850 857 862 863 868 871 867 873 886 888 888 889 885 886 889 889 890 888 886 887 887 888 886 884 888 888 884 883 884 885 885 884 884 882 881 879 878 877
861 861 860 860 859 859 858 857 857 856 855 854 853 853 851 851 849 849 848 848 847 846 844 843 841 841 839 838 835 836 851 871 873 866 863 859 856 854 849 847 844 839 836 834 835 835 838 837 839 850 856 859 866 870 872 872 870 872 882 888 889 889 887 889 891 890 891 888 889 891 889 889 886 885 889 887 883 884 885 885 885 884 883 882 881 880 879 879
862 862 861 861 861 860 859 858 858 857 856 855 855 854 853 852 851 850 849 849 848 847 845 844 843 841 840 840 836 843 862 873 871 867 864 861 858 855 851 848 844 841 839 838 841 840 842 846 851 856 859 865 870 872 875 874 874 878 884 889 888 890 890 891 891 890 890 890 892 891 888 888 889 890 888 884 883 886 886 885 885 884 883 882 882 881 880 879
864 864 863 863 862 861 860 859 859 858 857 857 856 855 854 854 853 852 851 850 849 848 848 845 843 840 841 842 834 846 870 875 872 868 864 862 860 857 853 850 847 845 843 845 845 841 844 852 857 856 860 870 874 875 876 873 878 884 887 889 889 891 892 892 891 890 891 891 892 889 887 889 892 892 886 884 886 888 887 886 886 885 883 884 883 882 881 880
866 866 865 865 864 863 862 861 860 860 859 858 858 857 856 856 855 854 853 852 851 850 849 848 846 842 840 840 837 857 878 875 871 869 865 863 861 859 855 853 853 850 848 849 848 847 851 855 858 857 859 869 875 877 877 876 883 888 889 889 891 893 893 893 891 892 892 891 892 891 889 891 893 891 886 886 889 889 888 887 887 886 885 885 884 884 883 882
868 868 867 866 865 864 863 862 862 861 861 860 859 858 857 857 856 855 854 853 853 851 851 850 848 844 840 841 851 872 880 873 872 869 866 865 862 860 858 858 857 854 853 852 852 854 856 857 858 858 861 870 876 879 881 883 887 888 889 888 891 893 893 894 893 893 893 890 893 894 891 892 891 891 889 889 891 890 889 887 888 887 887 887 886 885 884 883
869 868 868 867 866 866 864 863 863 862 862 861 860 859 858 858 856 856 855 854 854 853 852 849 848 847 841 846 865 879 877 874 873 869 867 866 864 863 862 861 860 857 856 855 857 858 858 859 856 858 867 873 878 881 883 887 888 889 890 886 889 892 892 897 897 896 894 890 894 893 888 889 889 889 891 892 892 891 889 888 888 888 888 888 888 887 885 884
871 870 869 869 868 867 865 865 864 863 863 861 861 860 859 858 857 856 856 856 855 854 853 850 850 847 841 857 877 878 876 876 872 870 869 867 866 866 864 864 862 861 859 858 861 861 860 861 857 862 871 874 880 883 883 888 888 889 892 890 890 889 890 899 901 897 891 891 895 891 885 886 887 888 891 893 893 890 889 888 887 888 889 888 888 887 886 884
872 871 871 870 869 868 867 866 864 864 863 862 862 861 860 859 858 858 857 857 856 855 854 852 852 848 848 869 880 876 877 876 872 870 868 868 868 867 866 866 864 863 862 861 863 863 864 863 859 864 874 878 882 883 884 889 890 891 892 895 900 894 890 900 905 899 891 892 894 887 885 888 887 887 891 894 893 891 889 887 887 888 888 888 888 887 886 884
873 873 872 871 870 869 868 867 865 865 863 863 862 861 861 859 859 859 858 858 857 857 856 853 852 851 859 874 878 877 877 873 872 872 871 871 868 867 867 866 866 865 864 864 865 866 866 863 862 871 880 883 883 884 885 887 893 898 891 891 905 903 895 900 907 906 900 897 895 886 885 889 888 887 891 894 893 891 889 887 887 887 887 887 887 887 885 884
874 874 872 872 871 870 869 868 867 865 864 864 862 862 861 860 861 860 859 860 858 859 856 855 855 854 864 877 878 877 877 875 876 875 874 873 870 870 868 866 867 866 866 867 866 867 866 865 871 881 886 887 890 889 885 885 892 902 898 895 906 907 901 899 901 908 908 900 895 891 890 890 888 887 891 894 893 891 889 887 887 887 887 887 887 886 885 883
875 874 873 872 871 871 870 868 867 866 865 865 864 865 863 862 861 859 860 860 860 861 857 860 860 856 868 881 882 881 881 881 879 877 875 873 872 871 868 868 868 867 868 867 866 868 868 872 879 886 892 896 900 893 880 885 895 902 907 906 912 914 908 901 897 905 909 900 898 900 895 891 890 891 892 894 894 891 888 887 887 887 887 887 887 885 884 883
876 875 874 873 872 872 871 870 868 867 867 867 867 868 866 866 863 861 862 860 860 860 858 863 860 864 880 886 887 888 885 883 881 878 876 874 873 872 871 870 869 868 869 868 871 873 873 879 883 886 894 898 905 901 887 895 906 905 910 911 912 916 912 906 902 905 910 904 902 902 894 889 890 891 891 893 895 892 889 889 888 888 887 887 887 885 883 882
877 876 875 874 873 872 872 871 869 868 868 867 868 868 868 869 865 864 865 863 867 871 875 880 877 883 894 892 892 891 886 885 883 879 877 875 874 874 873 872 873 872 872 876 879 883 884 886 889 892 900 906 916 921 912 913 918 913 919 920 916 915 910 909 908 910 916 908 902 905 901 896 892 890 891 893 896 893 890 891 889 887 888 887 886 884 883 882
878 877 876 875 874 873 873 872 871 870 869 868 868 868 869 870 872 877 878 876 884 891 893 896 894 895 896 894 893 889 885 885 883 881 878 876 875 874 874 875 876 877 883 888 887 891 891 891 904 911 916 920 923 929 929 930 931 924 924 922 921 920 911 909 911 913 919 907 900 911 907 898 894 892 894 895 895 893 889 889 888 887 887 886 885 883 882 881
879 878 877 876 875 875 874 872 872 870 869 868 867 868 873 875 877 885 890 891 896 898 896 898 897 895 896 896 894 891 890 886 883 883 880 879 877 875 881 883 880 883 895 901 896 894 890 895 916 924 924 928 927 932 934 932 931 927 922 915 916 920 912 910 914 915 918 907 900 910 901 890 893 893 895 896 893 890 890 890 888 887 887 886 885 883 882 881
880 879 878 877 876 875 874 874 873 872 870 869 868 872 878 879 879 882 887 892 898 898 897 898 896 896 897 896 895 895 893 889 885 884 884 882 878 880 889 892 891 895 900 901 896 892 894 905 920 926 929 931 930 933 932 928 927 923 919 912 911 918 913 909 914 916 918 908 901 910 899 887 894 896 894 896 894 892 894 894 892 890 888 884 884 883 881 880
880 879 878 878 877 876 875 875 874 873 873 871 872 875 879 881 881 882 882 886 895 898 898 897 897 898 897 896 897 895 893 896 895 892 889 886 887 891 895 897 899 903 903 900 893 891 900 912 921 929 932 927 924 928 928 922 921 921 917 911 913 921 915 904 908 916 918 913 911 914 902 889 892 895 892 894 897 896 895 895 894 894 891 887 885 885 883 880
881 880 879 878 878 877 876 876 875 875 875 875 876 878 881 882 882 883 884 889 894 897 899 899 899 900 899 899 899 897 897 902 902 899 896 893 895 897 900 904 903 905 913 911 902 901 910 919 926 929 926 923 921 925 927 916 911 918 918 914 917 924 925 915 915 921 917 915 919 912 896 889 891 890 889 892 895 893 892 891 889 890 892 889 887 884 883 881
882 880 880 879 878 878 877 877 877 878 878 879 879 881 882 882 883 883 884 890 895 897 898 899 900 900 901 901 899 900 901 902 904 903 899 899 899 898 903 909 905 904 915 916 909 908 916 925 928 923 920 922 920 923 930 922 911 911 915 920 923 925 927 924 926 922 901 898 915 911 890 886 893 892 889 892 892 889 890 889 886 887 888 886 884 882 881 880
882 881 881 879 879 878 878 878 879 880 880 881 882 883 883 883 885 884 884 892 899 902 900 898 901 901 901 902 901 902 900 900 905 904 902 901 901 900 903 909 910 908 915 917 912 913 918 927 928 921 920 920 918 921 929 930 918 907 914 926 927 928 926 924 929 915 890 894 917 918 897 886 890 888 889 895 893 889 889 887 886 887 886 884 883 882 880 879
883 882 881 880 880 878 878 879 880 880 880 882 883 883 884 884 884 884 885 894 903 908 905 901 903 904 904 906 904 901 902 904 904 903 905 902 901 902 901 907 911 913 924 919 907 914 920 919 921 921 920 918 918 920 925 931 920 907 920 929 926 927 923 925 926 909 905 912 914 919 913 898 891 887 891 898 891 886 887 885 885 886 885 885 883 882 881 879
884 884 882 881 881 879 879 880 880 881 881 883 884 883 885 885 884 885 887 900 911 911 909 907 905 906 907 908 906 906 911 913 906 904 906 904 903 902 901 910 912 913 926 914 900 917 925 918 921 922 920 918 918 921 925 929 919 913 927 932 929 931 927 931 925 913 926 919 894 909 921 901 889 889 894 897 889 885 887 886 886 886 885 885 883 881 880 879
885 884 883 882 881 880 881 880 880 882 883 884 884 884 885 884 884 886 890 906 916 911 911 910 905 909 913 910 910 915 915 915 914 910 908 906 905 904 905 913 913 912 919 911 905 920 926 925 928 926 923 922 920 922 926 925 919 922 931 931 931 934 932 934 925 914 922 909 890 910 921 902 888 886 890 892 888 888 890 889 888 887 885 885 884 882 880 879
887 885 884 883 882 882 882 882 882 883 884 885 884 885 885 884 886 889 897 911 916 915 916 913 912 920 920 911 911 918 918 918 922 916 910 912 910 908 913 916 914 912 913 913 913 921 928 930 932 929 926 926 924 924 927 925 922 926 931 929 928 930 933 934 934 923 904 891 898 916 923 913 894 885 890 891 890 893 893 890 887 885 884 883 883 882 880 879
888 887 886 884 883 883 882 883 884 884 885 885 885 886 884 886 890 894 906 918 918 917 918 918 924 929 926 920 919 922 921 920 925 920 914 919 917 911 914 917 917 911 908 914 915 919 925 924 926 930 929 930 926 921 925 929 929 927 926 923 913 913 919 913 913 912 891 883 903 920 928 923 898 883 888 890 891 897 895 891 887 884 883 883 882 881 880 879
889 888 887 885 885 884 883 884 885 885 886 885 886 886 885 888 896 905 917 920 916 920 923 925 930 930 930 930 928 930 927 922 926 928 926 926 926 928 930 933 934 915 904 917 920 917 920 923 928 928 929 932 921 914 917 920 923 922 921 918 897 890 896 889 894 906 896 891 910 925 926 915 896 883 884 887 889 894 895 892 889 887 885 884 883 881 880 880
890 889 888 886 886 885 884 885 885 885 886 886 886 888 886 887 902 923 928 919 919 929 934 934 934 934 932 926 926 934 932 926 927 929 932 930 930 938 942 945 947 927 914 925 928 921 915 921 929 923 924 930 924 921 919 916 921 921 925 922 900 895 892 883 903 917 902 896 916 935 925 899 888 884 884 888 889 891 894 893 892 891 889 886 884 883 881 879
891 890 888 888 886 886 886 885 886 886 886 887 886 886 886 893 915 933 927 922 931 937 938 940 934 931 930 926 932 939 930 927 933 929 928 930 930 936 940 941 945 939 931 931 935 934 918 912 923 924 924 929 929 933 931 929 931 932 940 932 916 921 909 893 906 909 904 913 920 922 910 890 885 884 886 891 891 893 893 892 894 892 890 890 886 884 880 878
890 890 889 888 886 887 887 886 886 886 885 886 886 886 891 905 922 926 920 926 936 935 937 943 934 923 926 931 939 943 933 927 934 933 931 935 938 941 945 945 947 947 937 927 935 944 927 916 928 933 933 934 932 937 941 936 929 933 944 933 925 938 933 930 942 940 943 941 917 905 899 894 893 887 890 895 890 890 889 888 890 886 887 889 883 882 880 877
890 890 889 888 888 888 886 886 886 886 888 886 883 891 905 917 923 924 926 933 934 931 930 933 929 921 921 929 933 937 938 934 933 932 933 942 946 946 949 950 952 951 942 935 941 944 929 920 931 935 934 937 937 938 941 934 923 927 934 930 938 951 943 940 953 967 969 934 905 910 902 891 893 885 887 893 885 885 886 884 886 884 886 885 880 882 882 878
890 890 890 890 889 887 887 887 886 886 887 882 883 904 925 931 934 937 940 940 939 938 928 920 929 931 924 926 929 930 934 933 933 930 932 941 943 943 950 952 953 954 951 948 947 949 941 926 930 936 930 935 945 941 939 941 934 926 926 933 947 950 945 941 934 940 944 914 902 919 911 898 894 880 881 890 885 883 884 883 885 884 883 882 881 883 881 879
891 891 890 890 889 888 887 885 886 887 886 886 899 922 934 936 941 947 947 944 942 938 927 919 932 943 934 927 929 936 936 927 929 934 934 937 939 943 950 950 952 957 957 954 946 951 952 930 925 939 934 934 945 938 931 940 941 933 931 941 943 932 932 940 931 921 923 918 912 916 919 916 901 881 878 881 880 879 880 882 883 881 880 881 883 883 880 880
891 890 890 891 889 887 886 885 888 886 880 889 908 923 934 940 946 951 949 947 943 934 926 925 935 944 943 936 933 940 942 932 933 938 935 936 939 943 950 950 951 955 957 957 950 952 957 937 921 934 942 938 937 935 932 935 939 938 937 941 942 938 939 943 945 941 932 931 929 918 907 897 888 886 879 873 876 878 878 881 880 879 881 882 883 883 881 880
891 890 889 891 888 887 888 885 886 885 887 907 922 927 939 945 946 952 952 948 945 935 929 932 935 935 939 944 943 943 945 942 941 938 936 942 942 941 950 953 951 954 957 958 954 954 959 947 928 929 940 938 932 938 942 940 941 938 936 939 940 945 953 948 954 963 948 938 947 940 910 880 878 888 879 871 877 880 881 883 880 880 881 881 883 882 881 880
891 890 889 890 888 888 886 886 900 911 915 928 936 938 944 945 944 952 953 950 949 944 940 939 936 934 935 939 943 947 945 942 944 941 939 944 941 939 952 958 954 955 954 952 954 956 956 953 944 936 934 931 936 951 955 951 951 945 939 943 940 943 950 938 940 964 965 951 951 953 927 888 879 887 882 877 880 881 886 887 882 882 882 881 882 880 880 879
891 892 891 890 888 887 885 895 926 938 928 930 940 943 945 945 945 949 950 950 948 946 945 943 941 943 942 940 945 952 947 939 942 942 940 944 943 942 954 962 959 958 954 951 957 961 959 959 954 942 938 940 946 957 960 956 957 954 948 948 946 947 948 935 931 948 964 964 964 971 949 897 878 889 888 883 885 885 889 890 885 883 882 882 881 878 878 877
893 892 891 889 889 888 887 900 927 938 937 944 951 950 948 947 946 947 948 948 945 943 942 942 944 944 945 950 950 951 948 941 942 944 943 946 948 951 960 964 960 959 957 954 958 960 959 959 951 935 936 947 952 957 962 960 957 950 947 950 947 945 945 945 946 949 955 960 962 966 941 887 873 892 891 886 891 889 888 891 888 884 882 881 879 877 876 875
897 895 893 891 887 885 887 896 911 928 943 948 946 946 948 949 949 946 945 944 945 944 939 942 949 945 950 959 953 952 954 943 939 948 950 948 950 956 963 963 960 959 956 955 958 958 954 955 951 932 922 927 932 937 942 948 951 943 942 949 948 948 951 953 959 960 952 949 949 944 917 879 874 889 887 884 888 883 883 887 886 884 881 878 877 876 875 873
897 896 895 894 889 888 896 905 909 921 939 940 936 941 943 944 950 949 947 948 950 949 941 943 951 950 955 962 956 960 966 951 941 950 954 952 953 958 962 961 960 960 959 961 963 958 955 958 954 935 923 920 918 917 921 932 942 941 943 948 946 949 949 943 953 957 943 946 955 936 901 876 873 879 880 882 883 880 879 881 882 883 880 877 877 874 872 871
897 895 895 894 894 898 910 921 917 917 928 928 927 938 939 937 947 953 951 948 951 953 948 947 953 950 952 955 947 950 964 965 958 953 950 949 950 957 964 962 961 962 961 963 963 960 961 963 956 942 932 927 920 918 926 935 938 936 940 944 943 947 948 944 951 950 941 951 951 924 900 888 877 874 877 880 881 880 879 878 878 879 876 876 875 872 871 870
899 900 902 899 898 903 911 921 921 917 920 919 918 931 937 936 943 949 949 949 951 953 950 950 952 945 941 945 941 943 958 967 963 955 950 950 952 959 964 963 962 962 961 962 962 961 958 954 956 954 943 935 932 930 936 943 940 935 936 939 939 943 947 946 943 938 940 943 923 906 913 908 884 875 879 879 877 876 876 876 875 874 873 873 872 871 869 866
902 906 914 910 904 906 908 913 921 920 920 922 926 932 933 934 937 937 941 951 954 952 946 944 946 943 940 942 937 937 948 951 947 948 949 951 954 955 957 961 964 962 962 962 962 962 957 952 958 961 950 944 945 941 940 945 944 940 939 939 940 942 943 941 936 935 940 928 902 900 917 909 888 881 879 876 876 875 874 874 873 873 872 870 869 869 866 863
907 909 917 917 912 918 921 922 924 920 919 924 929 932 930 927 929 934 943 948 946 950 948 935 934 941 945 946 939 934 938 936 934 941 945 948 952 951 947 951 959 965 963 961 964 966 959 953 961 966 955 946 945 942 944 949 946 940 938 938 938 940 940 937 933 933 935 925 908 908 914 905 888 881 878 873 874 876 875 873 873 871 869 868 867 866 863 861
906 905 911 914 916 925 928 927 923 916 919 924 921 926 932 926 925 935 943 937 930 942 949 934 932 944 948 948 942 934 935 935 932 937 943 944 946 948 944 941 950 964 964 961 967 969 959 953 962 968 953 936 937 941 942 946 945 938 933 934 937 939 939 939 936 934 935 929 917 916 921 910 886 875 878 876 873 876 875 871 870 867 866 866 865 863 861 858
904 904 907 907 913 923 924 925 924 914 914 919 916 923 930 924 925 930 933 935 931 933 940 934 934 946 951 950 944 937 939 942 938 939 943 941 941 945 945 943 948 955 960 965 966 964 962 958 961 965 944 921 932 944 939 940 945 937 926 922 929 937 935 932 930 928 925 921 918 923 923 904 878 872 877 875 871 874 871 867 867 864 863 864 861 859 858 856
905 905 906 903 909 923 924 922 924 916 912 915 917 923 925 923 929 929 923 933 940 936 938 938 936 940 943 943 941 938 942 945 943 944 947 946 947 949 950 951 951 950 955 963 964 965 968 958 957 963 939 912 928 945 938 929 916 899 892 892 904 923 928 923 921 918 916 914 912 910 897 879 872 875 874 869 867 867 864 861 862 860 859 860 858 857 856 853